EUTELSAT HOTBIRD 13G (54225 NORAD) Tracking and Keplerian Element Data

This shows tracking and keplerian element data for the satellite.

Feedback or suggestion? Click here.




ElementValue
Catalog54225
NameEUTELSAT HOTBIRD 13G
Epoch Orbit75
Epoch Day13.74746104
Epoch Year2023
RAAN311.0094
Inclination7.6259
Eccentricity0.5682958
Argument of Perigee191.6813
Mean Anonmoly300.9084
Mean Motion0.92419512
Decay Rate-1.63E-06
L11 54225U 22146A 23013.74746104 -.00000163 00000+0 00000+0 0 9994
L22 54225 7.6259 311.0094 5682958 191.6813 300.9084 0.92419512 758



Live tracking and technical data element details for EUTELSAT HOTBIRD 13G (NORAD 54225). EUTELSAT HOTBIRD 13G can be tracked NOW for your location showing map with azimuth and elevation plus other details from your city location.







IsCatalogInMostPopularTable: catalog: 54225, numindb: 19
Update: records affected: 1



GetName: 54225 EUTELSAT HOTBIRD 13G

Hit Count: updated at: Fri, 27 Jan 2023 21:26:26 GMT